Location: Erskine
(52.3216°N, 112.8806°W)
Time: 13:07:51
(UTC+00:00)

NOAA 15 - Pass Details

Date: 14 December 2023
Orbit: 797 x 810 km, 98.6° (Epoch: 01 March)

Event Time Altitude Azimuth Distance (km) Brightness Sun altitude
Rises 02:07:58 0° 164° (SSE) 3,313 7.7 -24.5°
Reaches altitude 10° 02:10:18 10° 164° (SSE) 2,384 6.9 -24.8°
Maximum altitude 02:15:35 86° 252° (WSW) 814 4.5 -25.6°
Drops below altitude 10° 02:20:54 10° 344° (NNW) 2,393 7.2 -26.4°
Sets 02:23:14 0° 345° (NNW) 3,326 7.9 -26.8°
